Location: Little Baddow
(51.7333°N, 0.5667°E)
Time: 00:20:28
(UTC+00:00)

NOSS 2-1 (E) - Pass Details

Date: 08 November 2025
Orbit: 385 x 1749 km, 63.3° (Epoch: 07 May)

Event Time Altitude Azimuth Distance (km) Brightness Sun altitude
Exits shadow 05:18:52 26° 225° (SW) 918 4.1 -16.5°
Maximum altitude 05:20:39 89° 307° (NW) 426 2.7 -16.2°
Drops below altitude 10° 05:23:42 10° 45° (NE) 1,434 6.0 -15.7°
Sets 05:25:38 0° 46° (NE) 2,280 7.1 -15.4°
